Other Public Products
Issued by NWS Grand Forks, ND

Home | Current Version | Previous Version | Graphics & Text | Print | Product List | Glossary On
Versions: 1 2 3 4 5 6 7 8 9 10 11 12 13 14 15 16 17 18 19 20 21 22 23 24 25 26 27 28 29 30 31 32 33 34 35 36 37 38 39 40 41 42 43 44 45 46 47 48 49 50
000
FPUS83 KFGF 310531
OPUFGF
PRAIRIE TO PINES WEATHER ROUNDUP
NATIONAL WEATHER SERVICE EASTERN NORTH DAKOTA/GRAND FORKS ND
1200 AM CDT MON AUG 31 2015

 **SATELLITE DATA USED TO AUGMENT SKY COVER AT AUTOMATED STATIONS**
 *****  WEATHER ACROSS EASTERN NORTH DAKOTA  *****

CITY           SKY/WX    TMP DP  RH WIND       PRES   REMARKS
GRAND FORKS    PTCLDY    73  68  84 S15       29.66S
GRAND FORKS AF PTCLDY    74  69  85 S13       29.66F
GRAND CITY NWS   N/A     72 N/A N/A S9          N/A
BUXTON         NOT AVBL
DEVILS LAKE    PTCLDY    73  64  73 S8        29.64F
FARGO          CLEAR     73  65  75 S17G24    29.71F
WAHPETON ARPT  CLEAR     64  59  82 S12       29.77R
$$

 *****  WEATHER ACROSS CENTRAL AND WESTERN NORTH DAKOTA  *****

CITY           SKY/WX    TMP DP  RH WIND       PRES   REMARKS
JAMESTOWN      CLEAR     72  68  87 S14       29.67F
BISMARCK       CLOUDY    71  59  65 CALM      29.64F
MINOT          CLOUDY    67  50  54 NW5       29.65F
MINOT AFB      CLOUDY    64  53  69 NW5       29.65F
GARRISON         N/A     66  56  70 N6        29.66F
WILLISTON      CLOUDY    67  49  52 NW6       29.72F
DICKINSON      CLOUDY    68  51  54 N9        29.71R
HETTINGER      CLOUDY    71  54  54 S9        29.74R HAZE
$$

 *****  OTHER OBSERVATIONS NORTHEAST NORTH DAKOTA  *****

CITY           SKY/WX    TMP DP  RH WIND       PRES   REMARKS
WALHALLA       FAIR      77  72  83 MISG      29.63R
LANGDON        FAIR      72  68  88 SW12      29.67R
CAVALIER       FAIR      73  68  83 S8        29.63R
GRAFTON        FAIR      73  72  94 S10       29.65S
CANDO          FAIR      66  63  88 NE5       29.66S
FORT TOTTEN    NOT AVBL
ROLLA          FAIR      63  57  82 N7        29.67F
RUGBY          FAIR      64  63  94 E6        29.65F FOG
 ***** THE ABOVE OBSERVATIONS ARE NON NWS ARE NOT QUALITY
        CONTROLLED AND MAY MIS-REPORT RAIN FOR SNOW...
$$

 *****  OTHER OBSERVATIONS SOUTHEAST NORTH DAKOTA *****

CITY           SKY/WX    TMP DP  RH WIND       PRES   REMARKS
COOPERSTOWN    NOT AVBL
VALLEY CITY    MOCLDY    72  72 100 S17G23    29.69F
OAKES            N/A     70  70 100 S20G25    29.72S
GWINNER        FAIR      72  64  78 CALM      29.73F
SHEYENNE NWR     N/A     67  63  87 S3        29.95S
BUFFALO        NOT AVBL
WYNDMERE         N/A     68  63  83 S9          N/A
 ***** THE ABOVE OBSERVATIONS ARE NON NWS ARE NOT QUALITY
       CONTROLLED AND MAY MIS-REPORT RAIN FOR SNOW...
$$

  *****  WEATHER ACROSS NORTHERN MINNESOTA  *****

CITY           SKY/WX    TMP DP  RH WIND       PRES   REMARKS
FLAG ISLAND    PTCLDY    70  66  88 S9        29.69S
WARROAD        PTCLDY    72  68  88 S9        29.70S
ROSEAU         CLEAR     72  66  83 S10       29.70S
HALLOCK        PTCLDY    73  70  88 S16       29.64F
THF RVR FALLS  CLEAR    N/A N/A N/A S13G20    29.71S
HALSTAD        NOT AVBL
FOSSTON        CLEAR     68  61  77 S10       29.76R
BAUDETTE       MOCLDY    71  66  84 S13       29.74S
WASKISH        MOCLDY    70  66  88 S8        29.76S
CROOKSTON      CLEAR     73  66  78 S16G24    29.70F
$$
  *****  WEATHER ACROSS CENTRAL AND WEST MINNESOTA  *****

CITY           SKY/WX    TMP DP  RH WIND       PRES   REMARKS
BEMIDJI        MOCLDY    69  65  86 S9        29.79S
PARK RAPIDS      N/A     70  64  81 S13       29.82F
WADENA         PTCLDY    66  63  88 S10       29.82F
DETROIT LAKES  PTCLDY    70  61  73 S10       29.80S
MOORHEAD       PTCLDY    70  63  78 S16       29.74S
FERGUS FALLS   FAIR      66  61  82 S10       29.79S
ELBOW LAKE     FAIR      66  63  87 S16       29.81S
MORRIS MN      PTCLDY    64  63  94 SE9       29.82S
STAPLES        PTCLDY    66  64  94 S9        29.85S
WHEATON        CLEAR     63  59  88 SE9       29.80S
$$
  *****  WEATHER ELSEWHERE ACROSS MINNESOTA  *****

CITY           SKY/WX    TMP DP  RH WIND       PRES   REMARKS
DULUTH         FAIR      67  64  90 SW9       29.90R
INTRNTL FALLS  PTCLDY    70  66  87 VRB3      29.78S
ELY            PTCLDY    68  63  83 SW8       29.87S
CLOQUET        PTCLDY    66  64  94 S6        29.90R
BRAINERD       PTCLDY    68  66  93 S12       29.87S
HIBBING        CLEAR     66  63  90 SE3       29.87S
ALEXANDRIA     PTCLDY    68  63  84 S12       29.87R
SAINT CLOUD    MOCLDY    67  66  97 S9        29.89S
MINNEAPOLIS    MOCLDY    69  64  84 S7        29.93S
$$

  *****  WEATHER ACROSS SOUTH DAKOTA  *****

CITY           SKY/WX    TMP DP  RH WIND       PRES   REMARKS
SIOUX FALLS    MOCLDY    67  64  90 S14       29.90F
BROOKINGS      MOCLDY    66  63  88 S15G23    29.90S
WATERTOWN      CLEAR     66  63  90 S14       29.83S
HURON          CLEAR     69  65  86 S15       29.79R
SISSETON         N/A     72  61  68 S18G29    29.75F
ABERDEEN       CLEAR     70  64  81 S20G26    29.74S
MITCHELL       CLEAR     69  66  90 S18G25    29.83R
PIERRE         CLEAR     75  57  53 SE14      29.70S
MOBRIDGE       PTCLDY    78  60  53 S16       29.65S
RAPID CITY     PTCLDY    71  57  61 NW10      29.75F
$$

  *****  SOME WEATHER IN NEARBY STATES *****

CITY           SKY/WX    TMP DP  RH WIND       PRES   REMARKS
GLASGOW MT     MOCLDY    62  58  86 W12       29.77R
GREAT FALLS MT CLOUDY    58  35  42 W18G26    29.91R
CHEYENNE WY    MOCLDY    69  46  43 NW9       30.09S
SCOTTSBLUFF NE CLOUDY    75  51  43 MISG      29.88R
OMAHA NE       PTCLDY    69  67  93 S7        29.97S
DES MOINES IA  PTCLDY    69  66  90 S6        29.99S
DAVENPORT IA   CLEAR     64  62  93 SE5       30.03S
CHICAGO IL     CLEAR     64  63  96 SE3       30.04S FOG
EAU CLAIRE WI  CLEAR     63  61  93 S6        29.96S
LA CROSSE WI   CLEAR     65  63  93 S5        29.99R
$$

  *****  SOME NATIONAL WEATHER *****

CITY           SKY/WX    TMP DP  RH WIND       PRES   REMARKS
LA GUARDIA NY  CLOUDY    80  67  64 SW9       30.02F
RALEIGH NC     CLOUDY    73  65  75 CALM      30.14S
ATLANTA GA     DRIZZLE   69  65  86 E10       30.11S
NEW ORLEANS LA PTCLDY    78  68  71 SW6       30.02S
OKLAHOMA CITY  PTCLDY    75  67  76 CALM      29.94F
ALBUQUERQUE NM PTCLDY    78  45  30 E7        30.12S
SALT LAKE CITY PTCLDY    74  46  36 S8        29.95R
LOS ANGELES CA PTCLDY    72  65  78 W7        29.84S
BOISE ID       CLEAR     67  42  40 NW12      29.98R
SEATTLE WA     MOCLDY    62  52  69 S10       30.01S
$$

*** WEATHER ACROSS MANITOBA...SASKATCHEWAN AND ONTARIO ***
                ***ONTARIO***

CITY           SKY/WX    TMP DP  RH WIND       PRES   REMARKS
GERALDTON      MOCLDY    63  63 100 CALM      29.86R
THUNDER BAY    PTCLDY    59  57  94 E2        29.85R
SIOUX LOOKOUT  MOCLDY    70  68  94 S5        29.78F
TORONTO        CLEAR     70  64  83 W7        30.01R
BIG TROUT LK   CLOUDY    50  48  93 E7G17     29.87F
PICKLE LAKE    NOT AVBL
DRYDEN         CLEAR     72  68  88 S12       29.76F
KENORA         PTCLDY    72  68  88 S10G17    29.72S
$$
                *** MANITOBA***

CITY           SKY/WX    TMP DP  RH WIND       PRES   REMARKS
BRANDON        PTCLDY    61  57  88 W7        29.63S SMOKE
DAUPHIN        CLEAR     63  59  88 W9        29.61R FOG
ISLAND LAKE    MOCLDY    61  57  88 VRB7      29.68R
PILOT MOUND      N/A     68  63  83 W6          N/A
THE PAS        CLOUDY    63  63 100 SE7       29.57F
THOMPSON       LGT RAIN  55  55 100 E6        29.64F
WINNIPEG       PTCLDY    75  70  83 S15       29.60R
LYNN LAKE      CLOUDY    55  55 100 MISG      29.56F FOG
CHURCHILL      CLOUDY    45  43  93 SE21G29   29.85F
$$
                ***SASKATCHEWAN***

CITY           SKY/WX    TMP DP  RH WIND       PRES   REMARKS
ESTEVAN        LGT RAIN  63  52  67 W8        29.74R
KINDERSLEY     MOCLDY    61  39  44 SW17G24   29.58S
LLOYDMINSTER   PTCLDY    57  46  67 W8        29.48R
PRINCE ALBERT  CLOUDY    61  52  72 VRB2      29.50F
REGINA         MOCLDY    64  55  72 S9        29.66R
YORKTON        CLEAR     55  52  88 CALM      29.64F



USA.gov is the U.S. government's official web portal to all federal, state and local government web resources and services.